Location: ??????
(55.0357°N, 38.6195°E)
Time: 12:39:32
(UTC+00:00)

Cosmos 1340 - Pass Details

Date: 14 April 2024
Orbit: 438 x 439 km, 81.2° (Epoch: 17 May)

Event Time Altitude Azimuth Distance (km) Brightness Sun altitude
Rises 01:24:31 0° 341° (NNW) 2,442 6.3 -8.6°
Reaches altitude 10° 01:26:38 10° 336° (NNW) 1,567 5.2 -8.3°
Maximum altitude 01:29:55 46° 262° (W) 604 2.6 -7.9°
Drops below altitude 10° 01:33:10 10° 188° (S) 1,554 4.8 -7.5°
Sets 01:35:16 0° 182° (S) 2,420 5.8 -7.3°
